Flag for France Weather past 2 weeks in Bastia, Corsica, France

Now
50 °F

Passing clouds.


Feels Like: 46 °F
Forecast: 40 / 47 °F
Wind: 10 mph from Northeast

Location: Bastia Airport

Current Time: Jan 25, 2015 at 7:39:02 PM

Latest Report: Jan 25, 2015 at 7:00 PM


Visibility: N/A

Pressure: 30.04 "Hg

Humidity: 50%

Dew point: 32 °F

Location of BastiaLocation

Historic Weather in Bastia — Graph

°F

Bastia temperature yesterday

Maximum temperature yesterday: 59 °F (at 1:00 PM)
Minimum temperature yesterday: 43 °F (at 8:00 PM)
Average temperature yesterday: 51 °F

Past Weeks' High & Low Weather Summary

 TemperatureHumidityPressure
High68 °F (Jan 11, 3:30 PM)94% (Jan 10, 7:00 PM)30.45 "Hg (Jan 10, 7:00 PM)
Low41 °F (Jan 13, 8:00 AM)29% (Jan 12, 11:30 AM)29.65 "Hg (Jan 23, 3:30 AM)
Average50 °F71%29.98 "Hg
* Reported Jan 10 6:00 PM — Jan 25 6:00 PM, Bastia, Weather by CustomWeather, © 2014

Note: Actual official high and low records may vary slightly from our data, if they occured in-between our weather recording intervals... More about our weather records

Advertising

Bastia weather history for previous 24 hours

 ConditionsComfort  
Time TempWeatherWind HumidityBarometerVisibility
6:00 PM
Jan 25
50 °FPassing clouds.15 mph47%30.01 "HgN/A
5:30 PM50 °FPassing clouds.15 mph47%30.01 "HgN/A
5:00 PM52 °FBroken clouds.14 mph50%30.01 "HgN/A
4:30 PM52 °FBroken clouds.14 mph47%29.98 "HgN/A
4:08 PM52 °FBroken clouds.3 mph54%29.98 "HgN/A
3:30 PM52 °FBroken clouds.13 mph54%29.98 "HgN/A
3:00 PM52 °FBroken clouds.9 mph58%29.98 "HgN/A
2:30 PM52 °FBroken clouds.10 mph58%29.95 "HgN/A
2:00 PM52 °FBroken clouds.14 mph54%29.95 "HgN/A
1:30 PM52 °FBroken clouds.14 mph58%29.98 "HgN/A
1:00 PM52 °FBroken clouds.9 mph62%29.98 "HgN/A
12:30 PM52 °FPartly sunny.7 mph62%29.98 "HgN/A
12:00 PM52 °FPartly sunny.7 mph62%29.98 "HgN/A
11:30 AM52 °FBroken clouds.8 mph62%29.95 "HgN/A
11:10 AM52 °FBroken clouds.8 mph62%29.95 "HgN/A
10:30 AM46 °FBroken clouds.2 mph82%29.95 "HgN/A
10:05 AM46 °FPartly sunny.2 mph82%29.95 "HgN/A
9:30 AM45 °FPartly sunny.5 mph76%29.92 "HgN/A
9:04 AM45 °FPartly sunny.3 mph76%29.92 "HgN/A
8:30 AM45 °FPartly sunny.5 mph76%29.92 "HgN/A
8:00 AM43 °FBroken clouds.6 mph81%29.89 "HgN/A
7:30 AM43 °FPartly cloudy.5 mph81%29.89 "HgN/A
7:00 AM41 °FPassing clouds.5 mph81%29.86 "HgN/A
6:30 AM41 °FPassing clouds.6 mph81%29.86 "HgN/A
6:00 AM41 °FPassing clouds.5 mph81%29.83 "HgN/A
5:30 AM41 °FPassing clouds.5 mph81%29.83 "HgN/A
5:00 AM41 °FPassing clouds.5 mph81%29.83 "HgN/A
4:30 AM43 °FPassing clouds.6 mph76%29.83 "HgN/A
4:00 AM41 °FPassing clouds.6 mph81%29.83 "HgN/A
3:30 AM43 °FPassing clouds.3 mph76%29.83 "HgN/A
3:00 AM43 °FPassing clouds.6 mph76%29.83 "HgN/A
2:34 AM43 °FPassing clouds.5 mph81%29.83 "HgN/A
2:00 AM43 °FMostly cloudy.6 mph81%29.80 "HgN/A
1:30 AM43 °FOvercast.6 mph81%29.80 "HgN/A
1:00 AM43 °FMostly cloudy.5 mph81%29.80 "HgN/A
12:30 AM43 °FPassing clouds.6 mph81%29.80 "HgN/A
12:00 AM43 °FPartly cloudy.5 mph81%29.80 "HgN/A
11:30 PM
Jan 24
43 °FPassing clouds.6 mph81%29.80 "HgN/A
11:00 PM45 °FPassing clouds.5 mph76%29.80 "HgN/A
10:30 PM45 °FPassing clouds.3 mph76%29.77 "HgN/A
10:00 PM45 °FPassing clouds.5 mph76%29.77 "HgN/A
9:30 PM43 °FPassing clouds.5 mph76%29.77 "HgN/A
9:00 PM43 °FPassing clouds.6 mph76%29.77 "HgN/A
8:30 PM43 °FPassing clouds.3 mph81%29.77 "HgN/A
8:00 PM43 °FPassing clouds.6 mph81%29.77 "HgN/A
7:37 PM45 °FPassing clouds.No wind81%29.77 "HgN/A
7:00 PM48 °FPassing clouds.3 mph71%29.77 "HgN/A
Weather by CustomWeather, © 2014

See weather overviewHow to use our weather pages